Time,TemperatureF,DewpointF,PressureIn,WindDirection,WindDirectionDegrees,WindSpeedMPH,WindSpeedGustMPH,Humidity,HourlyPrecipIn,Conditions,Clouds,dailyrainin,SoftwareType,DateUTC
2013-08-07 00:01:00,68.7,66.6,30.08,SE,132,0.0,0.0,93,0.00,,---,0.00,VWS V14.00,2013-08-07 04:01:00,
2013-08-07 00:06:00,68.4,66.3,30.07,SE,133,0.0,0.0,93,0.00,,---,0.00,VWS V14.00,2013-08-07 04:06:00,
2013-08-07 00:11:00,68.4,66.3,30.07,SE,132,0.0,0.0,93,0.00,,---,0.00,VWS V14.00,2013-08-07 04:11:00,
2013-08-07 00:16:00,68.3,66.2,30.07,SE,132,0.0,0.0,93,0.00,,---,0.00,VWS V14.00,2013-08-07 04:16:00,
2013-08-07 00:21:00,68.1,66.0,30.08,SE,132,0.0,0.0,93,0.00,,---,0.00,VWS V14.00,2013-08-07 04:21:00,
2013-08-07 00:26:00,68.1,66.3,30.08,SE,133,0.0,0.0,94,0.00,,---,0.00,VWS V14.00,2013-08-07 04:26:00,
2013-08-07 00:31:00,68.1,66.3,30.07,SE,132,0.0,0.0,94,0.00,,---,0.00,VWS V14.00,2013-08-07 04:31:00,
2013-08-07 00:36:00,68.2,66.4,30.07,SE,133,0.0,0.0,94,0.00,,---,0.00,VWS V14.00,2013-08-07 04:36:00,
2013-08-07 00:41:00,68.1,66.3,30.07,SE,133,0.0,0.0,94,0.00,,---,0.00,VWS V14.00,2013-08-07 04:41:00,
2013-08-07 00:46:00,68.0,66.2,30.07,SE,133,0.0,0.0,94,0.00,,---,0.00,VWS V14.00,2013-08-07 04:46:00,
2013-08-07 00:51:00,67.9,65.8,30.07,SE,132,0.0,0.0,93,0.00,,---,0.00,VWS V14.00,2013-08-07 04:51:00,
2013-08-07 00:56:00,67.8,66.0,30.07,SE,132,0.0,0.0,94,0.00,,---,0.00,VWS V14.00,2013-08-07 04:56:00,
2013-08-07 01:01:00,68.0,66.2,30.07,SE,133,0.0,0.0,94,0.00,,---,0.00,VWS V14.00,2013-08-07 05:01:00,
2013-08-07 01:06:00,68.1,66.3,30.06,SE,132,0.0,0.0,94,0.00,,---,0.00,VWS V14.00,2013-08-07 05:06:00,
2013-08-07 01:11:00,68.1,66.3,30.06,SE,133,0.0,0.0,94,0.00,,---,0.00,VWS V14.00,2013-08-07 05:11:00,
2013-08-07 01:16:00,68.2,66.4,30.06,SE,132,0.0,0.0,94,0.00,,---,0.00,VWS V14.00,2013-08-07 05:16:00,
2013-08-07 01:21:00,68.2,66.4,30.06,SE,132,0.0,0.0,94,0.00,,---,0.00,VWS V14.00,2013-08-07 05:21:00,
2013-08-07 01:26:00,68.1,66.3,30.06,SE,132,0.0,0.0,94,0.00,,---,0.00,VWS V14.00,2013-08-07 05:26:00,
2013-08-07 01:31:00,68.1,66.3,30.06,SE,132,0.0,1.0,94,0.00,,---,0.00,VWS V14.00,2013-08-07 05:31:00,
2013-08-07 01:36:00,67.9,65.8,30.06,SE,133,0.0,1.0,93,0.00,,---,0.00,VWS V14.00,2013-08-07 05:36:00,
2013-08-07 01:41:00,67.8,66.0,30.06,SE,132,0.0,1.0,94,0.00,,---,0.00,VWS V14.00,2013-08-07 05:41:00,
2013-08-07 01:46:00,67.7,65.9,30.05,SE,133,0.0,1.0,94,0.00,,---,0.00,VWS V14.00,2013-08-07 05:46:00,
2013-08-07 01:51:00,67.7,65.9,30.05,SE,132,0.0,1.0,94,0.00,,---,0.00,VWS V14.00,2013-08-07 05:51:00,
2013-08-07 01:56:00,67.9,66.1,30.05,SE,132,0.0,1.0,94,0.00,,---,0.00,VWS V14.00,2013-08-07 05:56:00,
2013-08-07 02:01:00,67.9,66.1,30.05,SE,132,0.0,0.0,94,0.00,,---,0.00,VWS V14.00,2013-08-07 06:01:00,
2013-08-07 02:06:00,67.8,66.0,30.05,SE,132,0.0,0.0,94,0.00,,---,0.00,VWS V14.00,2013-08-07 06:06:00,
2013-08-07 02:11:00,67.9,66.1,30.05,SE,133,0.0,0.0,94,0.00,,---,0.00,VWS V14.00,2013-08-07 06:11:00,
2013-08-07 02:16:00,67.7,65.9,30.05,SE,133,0.0,0.0,94,0.00,,---,0.00,VWS V14.00,2013-08-07 06:16:00,
2013-08-07 02:21:00,67.5,65.7,30.05,SE,133,0.0,0.0,94,0.00,,---,0.00,VWS V14.00,2013-08-07 06:21:00,
2013-08-07 02:26:00,67.4,65.6,30.05,SE,132,0.0,0.0,94,0.00,,---,0.00,VWS V14.00,2013-08-07 06:26:00,
2013-08-07 02:31:00,67.5,65.7,30.05,SE,132,0.0,0.0,94,0.00,,---,0.00,VWS V14.00,2013-08-07 06:31:00,
2013-08-07 02:36:00,67.4,65.6,30.07,SE,133,0.0,0.0,94,0.00,,---,0.00,VWS V14.00,2013-08-07 06:36:00,
2013-08-07 02:41:00,67.4,65.6,30.06,SE,132,0.0,0.0,94,0.00,,---,0.00,VWS V14.00,2013-08-07 06:41:00,
2013-08-07 02:46:00,67.5,65.7,30.06,SE,133,0.0,0.0,94,0.00,,---,0.00,VWS V14.00,2013-08-07 06:46:00,
2013-08-07 02:51:00,67.4,65.6,30.06,SE,132,0.0,0.0,94,0.00,,---,0.00,VWS V14.00,2013-08-07 06:51:00,
2013-08-07 02:56:00,67.4,65.6,30.06,SE,133,0.0,0.0,94,0.00,,---,0.00,VWS V14.00,2013-08-07 06:56:00,
2013-08-07 03:01:00,67.3,65.5,30.06,SE,132,0.0,0.0,94,0.00,,---,0.00,VWS V14.00,2013-08-07 07:01:00,
2013-08-07 03:06:00,67.2,65.4,30.06,SE,132,0.0,0.0,94,0.00,,---,0.00,VWS V14.00,2013-08-07 07:06:00,
2013-08-07 03:11:00,67.2,65.4,30.06,SE,132,0.0,0.0,94,0.00,,---,0.00,VWS V14.00,2013-08-07 07:11:00,
2013-08-07 03:16:00,67.2,65.4,30.06,SE,132,0.0,0.0,94,0.00,,---,0.00,VWS V14.00,2013-08-07 07:16:00,
2013-08-07 03:21:00,67.0,65.2,30.06,SE,132,0.0,0.0,94,0.00,,---,0.00,VWS V14.00,2013-08-07 07:21:00,
2013-08-07 03:26:00,67.0,65.5,30.06,SE,133,0.0,0.0,95,0.00,,---,0.00,VWS V14.00,2013-08-07 07:26:00,
2013-08-07 03:31:00,67.0,65.5,30.06,SE,133,0.0,0.0,95,0.00,,---,0.00,VWS V14.00,2013-08-07 07:31:00,
2013-08-07 03:36:00,66.9,65.4,30.06,SE,132,0.0,0.0,95,0.00,,---,0.00,VWS V14.00,2013-08-07 07:36:00,
2013-08-07 03:41:00,67.1,65.6,30.06,SE,133,0.0,0.0,95,0.00,,---,0.00,VWS V14.00,2013-08-07 07:41:00,
2013-08-07 03:46:00,67.1,65.6,30.06,SE,133,0.0,0.0,95,0.00,,---,0.00,VWS V14.00,2013-08-07 07:46:00,
2013-08-07 03:51:00,67.1,65.6,30.06,SE,132,0.0,0.0,95,0.00,,---,0.00,VWS V14.00,2013-08-07 07:51:00,
2013-08-07 03:56:00,67.0,65.5,30.07,SE,132,0.0,0.0,95,0.00,,---,0.00,VWS V14.00,2013-08-07 07:56:00,
2013-08-07 04:01:00,66.9,65.4,30.07,SE,133,0.0,0.0,95,0.00,,---,0.00,VWS V14.00,2013-08-07 08:01:00,
2013-08-07 04:06:00,66.8,65.3,30.07,SE,133,0.0,0.0,95,0.00,,---,0.00,VWS V14.00,2013-08-07 08:06:00,
2013-08-07 04:11:00,66.8,65.0,30.07,SE,132,0.0,0.0,94,0.00,,---,0.00,VWS V14.00,2013-08-07 08:11:00,
2013-08-07 04:16:00,66.8,65.0,30.07,SE,132,0.0,0.0,94,0.00,,---,0.00,VWS V14.00,2013-08-07 08:16:00,
2013-08-07 04:21:00,66.8,65.0,30.07,SE,132,0.0,0.0,94,0.00,,---,0.00,VWS V14.00,2013-08-07 08:21:00,
2013-08-07 04:26:00,66.8,65.0,30.07,SE,133,0.0,0.0,94,0.00,,---,0.00,VWS V14.00,2013-08-07 08:26:00,
2013-08-07 04:31:00,66.8,65.0,30.07,SE,132,0.0,0.0,94,0.00,,---,0.00,VWS V14.00,2013-08-07 08:31:00,
2013-08-07 04:36:00,66.7,64.9,30.07,SE,132,0.0,0.0,94,0.00,,---,0.00,VWS V14.00,2013-08-07 08:36:00,
2013-08-07 04:41:00,66.6,64.8,30.07,SE,132,0.0,0.0,94,0.00,,---,0.00,VWS V14.00,2013-08-07 08:41:00,
2013-08-07 04:46:00,66.6,64.8,30.07,SE,132,0.0,0.0,94,0.00,,---,0.00,VWS V14.00,2013-08-07 08:46:00,
2013-08-07 04:51:00,66.5,64.7,30.07,SE,132,0.0,0.0,94,0.00,,---,0.00,VWS V14.00,2013-08-07 08:51:00,
2013-08-07 04:56:00,66.6,64.8,30.08,SE,133,0.0,0.0,94,0.00,,---,0.00,VWS V14.00,2013-08-07 08:56:00,
2013-08-07 05:01:00,66.6,64.8,30.08,SE,133,0.0,1.0,94,0.00,,---,0.00,VWS V14.00,2013-08-07 09:01:00,
2013-08-07 05:06:00,66.6,64.8,30.08,SE,132,0.0,1.0,94,0.00,,---,0.00,VWS V14.00,2013-08-07 09:06:00,
2013-08-07 05:11:00,66.6,64.8,30.08,SE,133,0.0,1.0,94,0.00,,---,0.00,VWS V14.00,2013-08-07 09:11:00,
2013-08-07 05:16:00,66.7,64.9,30.07,SE,132,0.0,2.0,94,0.00,,---,0.00,VWS V14.00,2013-08-07 09:16:00,
2013-08-07 05:21:00,66.6,64.8,30.07,East,101,0.0,2.0,94,0.00,,---,0.00,VWS V14.00,2013-08-07 09:21:00,
2013-08-07 05:26:00,66.6,64.8,30.08,ENE,67,0.0,2.0,94,0.00,,---,0.00,VWS V14.00,2013-08-07 09:26:00,
2013-08-07 05:31:00,66.6,64.8,30.08,NE,50,0.0,0.0,94,0.00,,---,0.00,VWS V14.00,2013-08-07 09:31:00,
2013-08-07 05:36:00,66.5,64.7,30.08,NE,50,0.0,0.0,94,0.00,,---,0.00,VWS V14.00,2013-08-07 09:36:00,
2013-08-07 05:41:00,66.4,64.6,30.08,NE,50,0.0,0.0,94,0.00,,---,0.00,VWS V14.00,2013-08-07 09:41:00,
2013-08-07 05:46:00,66.4,64.9,30.08,NE,50,0.0,0.0,95,0.00,,---,0.00,VWS V14.00,2013-08-07 09:46:00,
2013-08-07 05:51:00,66.4,64.9,30.08,NE,50,0.0,0.0,95,0.00,,---,0.00,VWS V14.00,2013-08-07 09:51:00,
2013-08-07 05:56:00,66.3,64.8,30.08,NE,50,0.0,0.0,95,0.00,,---,0.00,VWS V14.00,2013-08-07 09:56:00,
2013-08-07 06:01:00,66.3,64.8,30.08,NE,50,0.0,0.0,95,0.00,,---,0.00,VWS V14.00,2013-08-07 10:01:00,
2013-08-07 06:06:00,66.3,64.8,30.08,NE,50,0.0,0.0,95,0.00,,---,0.00,VWS V14.00,2013-08-07 10:06:00,
2013-08-07 06:11:00,66.3,64.8,30.09,NE,50,0.0,0.0,95,0.00,,---,0.00,VWS V14.00,2013-08-07 10:11:00,
2013-08-07 06:16:00,66.3,64.8,30.09,NE,50,0.0,0.0,95,0.00,,---,0.00,VWS V14.00,2013-08-07 10:16:00,
2013-08-07 06:21:00,66.4,64.9,30.09,NE,50,0.0,0.0,95,0.00,,---,0.00,VWS V14.00,2013-08-07 10:21:00,
2013-08-07 06:26:00,66.4,64.9,30.09,NE,50,0.0,0.0,95,0.00,,---,0.00,VWS V14.00,2013-08-07 10:26:00,
2013-08-07 06:31:00,66.4,64.9,30.09,NE,50,0.0,0.0,95,0.00,,---,0.00,VWS V14.00,2013-08-07 10:31:00,
2013-08-07 06:36:00,66.4,64.9,30.09,NE,50,0.0,0.0,95,0.00,,---,0.00,VWS V14.00,2013-08-07 10:36:00,
2013-08-07 06:41:00,66.4,64.9,30.09,NE,49,0.0,0.0,95,0.00,,---,0.00,VWS V14.00,2013-08-07 10:41:00,
2013-08-07 06:46:00,66.4,64.9,30.09,NE,50,0.0,0.0,95,0.00,,---,0.00,VWS V14.00,2013-08-07 10:46:00,
2013-08-07 06:51:00,66.4,64.9,30.09,NE,50,0.0,0.0,95,0.00,,---,0.00,VWS V14.00,2013-08-07 10:51:00,
2013-08-07 06:56:00,66.5,65.0,30.09,NE,50,0.0,0.0,95,0.00,,---,0.00,VWS V14.00,2013-08-07 10:56:00,
2013-08-07 07:01:00,66.8,65.3,30.08,NE,50,0.0,0.0,95,0.00,,---,0.00,VWS V14.00,2013-08-07 11:01:00,
2013-08-07 07:06:00,67.1,65.6,30.09,NE,50,0.0,0.0,95,0.00,,---,0.00,VWS V14.00,2013-08-07 11:06:00,
2013-08-07 07:11:00,67.1,65.3,30.09,NE,50,0.0,0.0,94,0.00,,---,0.00,VWS V14.00,2013-08-07 11:11:00,
2013-08-07 07:16:00,67.2,65.7,30.09,NE,50,0.0,0.0,95,0.00,,---,0.00,VWS V14.00,2013-08-07 11:16:00,
2013-08-07 07:21:00,67.9,66.4,30.09,NE,50,0.0,0.0,95,0.00,,---,0.00,VWS V14.00,2013-08-07 11:21:00,
2013-08-07 07:26:00,68.4,66.9,30.09,NE,50,0.0,0.0,95,0.00,,---,0.00,VWS V14.00,2013-08-07 11:26:00,
2013-08-07 07:31:00,68.9,67.4,30.09,NE,50,0.0,0.0,95,0.00,,---,0.00,VWS V14.00,2013-08-07 11:31:00,
2013-08-07 07:36:00,69.4,67.6,30.09,NE,50,0.0,0.0,94,0.00,,---,0.00,VWS V14.00,2013-08-07 11:36:00,
2013-08-07 07:41:00,69.9,68.1,30.09,NE,50,1.0,1.0,94,0.00,,---,0.00,VWS V14.00,2013-08-07 11:41:00,
2013-08-07 07:46:00,70.4,68.6,30.09,NE,50,0.0,2.0,94,0.00,,---,0.00,VWS V14.00,2013-08-07 11:46:00,
2013-08-07 07:51:00,71.1,69.0,30.09,NE,50,0.0,2.0,93,0.00,,---,0.00,VWS V14.00,2013-08-07 11:51:00,
2013-08-07 07:56:00,71.7,69.3,30.09,NE,50,0.0,2.0,92,0.00,,---,0.00,VWS V14.00,2013-08-07 11:56:00,
2013-08-07 08:01:00,72.4,69.9,30.09,NE,50,0.0,0.0,92,0.00,,---,0.00,VWS V14.00,2013-08-07 12:01:00,
2013-08-07 08:06:00,73.2,70.1,30.09,NE,50,0.0,0.0,90,0.00,,---,0.00,VWS V14.00,2013-08-07 12:06:00,
2013-08-07 08:11:00,73.8,70.4,30.10,NE,50,2.0,2.0,89,0.00,,---,0.00,VWS V14.00,2013-08-07 12:11:00,
2013-08-07 08:16:00,74.3,70.5,30.09,NE,50,0.0,2.0,88,0.00,,---,0.00,VWS V14.00,2013-08-07 12:16:00,
2013-08-07 08:21:00,74.8,71.0,30.09,NE,50,0.0,2.0,88,0.00,,---,0.00,VWS V14.00,2013-08-07 12:21:00,
2013-08-07 08:26:00,75.4,71.3,30.09,NE,50,0.0,2.0,87,0.00,,---,0.00,VWS V14.00,2013-08-07 12:26:00,
2013-08-07 08:31:00,76.3,71.5,30.10,NE,46,2.0,3.0,85,0.00,,---,0.00,VWS V14.00,2013-08-07 12:31:00,
2013-08-07 08:36:00,76.8,71.2,30.10,NE,45,3.0,4.0,83,0.00,,---,0.00,VWS V14.00,2013-08-07 12:36:00,
2013-08-07 08:41:00,77.0,71.1,30.10,NNE,23,4.0,4.0,82,0.00,,---,0.00,VWS V14.00,2013-08-07 12:41:00,
2013-08-07 08:46:00,77.4,71.8,30.10,NNE,16,4.0,4.0,83,0.00,,---,0.00,VWS V14.00,2013-08-07 12:46:00,
2013-08-07 08:51:00,78.0,72.1,30.10,NNE,13,0.0,5.0,82,0.00,,---,0.00,VWS V14.00,2013-08-07 12:51:00,
2013-08-07 08:56:00,78.6,72.3,30.10,NNE,16,2.0,5.0,81,0.00,,---,0.00,VWS V14.00,2013-08-07 12:56:00,
2013-08-07 09:01:00,78.9,72.2,30.09,NNE,29,1.0,5.0,80,0.00,,---,0.00,VWS V14.00,2013-08-07 13:01:00,
2013-08-07 09:06:00,79.3,72.2,30.10,ENE,60,5.0,5.0,79,0.00,,---,0.00,VWS V14.00,2013-08-07 13:06:00,
2013-08-07 09:11:00,79.7,71.1,30.10,ENE,64,0.0,5.0,75,0.00,,---,0.00,VWS V14.00,2013-08-07 13:11:00,
2013-08-07 09:16:00,80.3,72.4,30.10,ESE,102,2.0,6.0,77,0.00,,---,0.00,VWS V14.00,2013-08-07 13:16:00,
2013-08-07 09:21:00,80.7,72.0,30.10,East,82,0.0,7.0,75,0.00,,---,0.00,VWS V14.00,2013-08-07 13:21:00,
2013-08-07 09:26:00,81.1,72.4,30.10,ESE,113,2.0,7.0,75,0.00,,---,0.00,VWS V14.00,2013-08-07 13:26:00,
2013-08-07 09:31:00,81.1,70.8,30.10,East,101,2.0,8.0,71,0.00,,---,0.00,VWS V14.00,2013-08-07 13:31:00,
2013-08-07 09:35:00,81.3,70.6,30.10,NNE,31,5.0,9.0,70,0.00,,---,0.00,VWS V14.00,2013-08-07 13:35:00,
2013-08-07 09:40:00,81.2,70.5,30.10,NE,49,2.0,9.0,70,0.00,,---,0.00,VWS V14.00,2013-08-07 13:40:00,
2013-08-07 09:45:00,81.3,71.8,30.10,ESE,123,8.0,9.0,73,0.00,,---,0.00,VWS V14.00,2013-08-07 13:45:00,
2013-08-07 09:50:00,81.8,71.9,30.10,East,96,5.0,9.0,72,0.00,,---,0.00,VWS V14.00,2013-08-07 13:50:00,
2013-08-07 09:55:00,82.4,71.2,30.10,ESE,102,8.0,9.0,69,0.00,,---,0.00,VWS V14.00,2013-08-07 13:55:00,
2013-08-07 10:00:00,82.7,71.5,30.10,ESE,103,6.0,9.0,69,0.00,,---,0.00,VWS V14.00,2013-08-07 14:00:00,
2013-08-07 10:05:00,82.2,71.9,30.10,East,84,4.0,10.0,71,0.00,,---,0.00,VWS V14.00,2013-08-07 14:05:00,
2013-08-07 10:10:00,82.6,71.8,30.10,East,98,4.0,10.0,70,0.00,,---,0.00,VWS V14.00,2013-08-07 14:10:00,
2013-08-07 10:15:00,82.7,71.5,30.10,East,94,2.0,10.0,69,0.00,,---,0.00,VWS V14.00,2013-08-07 14:15:00,
2013-08-07 10:20:00,82.9,72.5,30.10,SE,125,9.0,10.0,71,0.00,,---,0.00,VWS V14.00,2013-08-07 14:20:00,
2013-08-07 10:25:00,83.2,72.0,30.10,ESE,104,7.0,10.0,69,0.00,,---,0.00,VWS V14.00,2013-08-07 14:25:00,
2013-08-07 10:30:00,83.3,71.6,30.10,ENE,58,7.0,10.0,68,0.00,,---,0.00,VWS V14.00,2013-08-07 14:30:00,
2013-08-07 10:35:00,83.5,71.4,30.10,ESE,107,8.0,11.0,67,0.00,,---,0.00,VWS V14.00,2013-08-07 14:35:00,
2013-08-07 10:40:00,83.6,71.9,30.10,East,96,7.0,11.0,68,0.00,,---,0.00,VWS V14.00,2013-08-07 14:40:00,
2013-08-07 10:45:00,83.6,71.9,30.10,East,86,7.0,11.0,68,0.00,,---,0.00,VWS V14.00,2013-08-07 14:45:00,
2013-08-07 10:50:00,83.8,73.0,30.10,ENE,57,6.0,12.0,70,0.00,,---,0.00,VWS V14.00,2013-08-07 14:50:00,
2013-08-07 10:55:00,84.2,72.5,30.10,SE,127,9.0,12.0,68,0.00,,---,0.00,VWS V14.00,2013-08-07 14:55:00,
2013-08-07 11:00:00,84.0,71.4,30.10,SE,127,4.0,9.0,66,0.00,,---,0.00,VWS V14.00,2013-08-07 15:00:00,
2013-08-07 11:05:00,83.7,72.0,30.10,ESE,123,11.0,12.0,68,0.00,,---,0.00,VWS V14.00,2013-08-07 15:05:00,
2013-08-07 11:10:00,84.0,72.3,30.10,East,95,8.0,12.0,68,0.00,,---,0.00,VWS V14.00,2013-08-07 15:10:00,
2013-08-07 11:15:00,84.2,72.1,30.10,East,90,3.0,12.0,67,0.00,,---,0.00,VWS V14.00,2013-08-07 15:15:00,
2013-08-07 11:20:00,84.5,72.3,30.10,ESE,108,5.0,12.0,67,0.00,,---,0.00,VWS V14.00,2013-08-07 15:20:00,
2013-08-07 11:25:00,84.7,72.1,30.10,ENE,78,3.0,12.0,66,0.00,,---,0.00,VWS V14.00,2013-08-07 15:25:00,
2013-08-07 11:30:00,84.5,71.9,30.10,ESE,102,11.0,11.0,66,0.00,,---,0.00,VWS V14.00,2013-08-07 15:30:00,
2013-08-07 11:35:00,84.5,71.4,30.11,East,95,7.0,11.0,65,0.00,,---,0.00,VWS V14.00,2013-08-07 15:35:00,
2013-08-07 11:40:00,84.3,72.2,30.10,SE,130,2.0,11.0,67,0.00,,---,0.00,VWS V14.00,2013-08-07 15:40:00,
2013-08-07 11:45:00,84.1,72.4,30.10,SE,139,9.0,13.0,68,0.00,,---,0.00,VWS V14.00,2013-08-07 15:45:00,
2013-08-07 11:50:00,84.3,72.2,30.10,ENE,64,5.0,13.0,67,0.00,,---,0.00,VWS V14.00,2013-08-07 15:50:00,
2013-08-07 11:55:00,83.4,70.9,30.10,ESE,107,5.0,15.0,66,0.00,,---,0.00,VWS V14.00,2013-08-07 15:55:00,
2013-08-07 12:00:00,83.4,72.2,30.10,ESE,106,6.0,12.0,69,0.00,,---,0.00,VWS V14.00,2013-08-07 16:00:00,
2013-08-07 12:05:00,83.3,70.8,30.10,SE,125,10.0,12.0,66,0.00,,---,0.00,VWS V14.00,2013-08-07 16:05:00,
2013-08-07 12:10:00,83.5,70.5,30.10,East,93,7.0,13.0,65,0.00,,---,0.00,VWS V14.00,2013-08-07 16:10:00,
2013-08-07 12:15:00,84.0,72.3,30.10,SE,146,8.0,13.0,68,0.00,,---,0.00,VWS V14.00,2013-08-07 16:15:00,
2013-08-07 12:20:00,84.1,72.0,30.10,SE,136,10.0,14.0,67,0.00,,---,0.00,VWS V14.00,2013-08-07 16:20:00,
2013-08-07 12:25:00,84.3,71.7,30.10,East,93,1.0,14.0,66,0.00,,---,0.00,VWS V14.00,2013-08-07 16:25:00,
2013-08-07 12:30:00,84.9,72.7,30.10,ESE,110,5.0,11.0,67,0.00,,---,0.00,VWS V14.00,2013-08-07 16:30:00,
2013-08-07 12:35:00,84.3,73.0,30.10,ESE,106,6.0,11.0,69,0.00,,---,0.00,VWS V14.00,2013-08-07 16:35:00,
2013-08-07 12:40:00,84.5,72.8,30.10,ESE,108,9.0,11.0,68,0.00,,---,0.00,VWS V14.00,2013-08-07 16:40:00,
2013-08-07 12:45:00,84.8,73.1,30.10,ESE,106,4.0,12.0,68,0.00,,---,0.00,VWS V14.00,2013-08-07 16:45:00,
2013-08-07 12:50:00,84.8,72.2,30.10,SE,143,10.0,12.0,66,0.00,,---,0.00,VWS V14.00,2013-08-07 16:50:00,
2013-08-07 12:55:00,83.7,72.0,30.10,ESE,106,8.0,13.0,68,0.00,,---,0.00,VWS V14.00,2013-08-07 16:55:00,
2013-08-07 13:00:00,84.8,73.5,30.10,East,85,5.0,10.0,69,0.00,,---,0.00,VWS V14.00,2013-08-07 17:00:00,
2013-08-07 13:05:00,85.7,73.5,30.10,East,87,3.0,14.0,67,0.00,,---,0.00,VWS V14.00,2013-08-07 17:05:00,
2013-08-07 13:10:00,85.2,73.0,30.10,SE,145,9.0,14.0,67,0.00,,---,0.00,VWS V14.00,2013-08-07 17:10:00,
2013-08-07 13:15:00,84.2,72.5,30.10,East,94,6.0,14.0,68,0.00,,---,0.00,VWS V14.00,2013-08-07 17:15:00,
2013-08-07 13:20:00,84.2,73.8,30.10,SE,125,9.0,14.0,71,0.00,,---,0.00,VWS V14.00,2013-08-07 17:20:00,
2013-08-07 13:25:00,83.8,72.1,30.10,ESE,110,7.0,14.0,68,0.00,,---,0.00,VWS V14.00,2013-08-07 17:25:00,
2013-08-07 13:30:00,83.9,73.1,30.10,ESE,103,7.0,13.0,70,0.00,,---,0.00,VWS V14.00,2013-08-07 17:30:00,
2013-08-07 13:35:00,84.4,73.1,30.10,East,98,7.0,13.0,69,0.00,,---,0.00,VWS V14.00,2013-08-07 17:35:00,
2013-08-07 13:40:00,84.7,73.0,30.10,East,101,8.0,13.0,68,0.00,,---,0.00,VWS V14.00,2013-08-07 17:40:00,
2013-08-07 13:45:00,83.8,73.4,30.10,SE,125,7.0,14.0,71,0.00,,---,0.00,VWS V14.00,2013-08-07 17:45:00,
2013-08-07 13:50:00,83.8,73.0,30.10,East,96,5.0,14.0,70,0.00,,---,0.00,VWS V14.00,2013-08-07 17:50:00,
2013-08-07 13:55:00,83.9,73.5,30.10,NE,54,6.0,14.0,71,0.00,,---,0.00,VWS V14.00,2013-08-07 17:55:00,
2013-08-07 14:00:00,84.3,73.0,30.10,ESE,121,11.0,12.0,69,0.00,,---,0.00,VWS V14.00,2013-08-07 18:00:00,
2013-08-07 14:05:00,84.6,74.2,30.10,ESE,116,5.0,12.0,71,0.00,,---,0.00,VWS V14.00,2013-08-07 18:05:00,
2013-08-07 14:10:00,84.7,74.7,30.09,East,96,7.0,12.0,72,0.00,,---,0.00,VWS V14.00,2013-08-07 18:10:00,
2013-08-07 14:15:00,84.6,73.3,30.09,East,83,7.0,12.0,69,0.00,,---,0.00,VWS V14.00,2013-08-07 18:15:00,
2013-08-07 14:20:00,84.4,73.1,30.10,ESE,106,4.0,12.0,69,0.00,,---,0.00,VWS V14.00,2013-08-07 18:20:00,
2013-08-07 14:25:00,83.9,72.7,30.10,East,80,3.0,12.0,69,0.00,,---,0.00,VWS V14.00,2013-08-07 18:25:00,
2013-08-07 14:30:00,83.5,73.1,30.10,SE,126,6.0,11.0,71,0.00,,---,0.00,VWS V14.00,2013-08-07 18:30:00,
2013-08-07 14:35:00,83.6,73.2,30.10,SE,129,7.0,11.0,71,0.00,,---,0.00,VWS V14.00,2013-08-07 18:35:00,
2013-08-07 14:40:00,84.1,74.9,30.10,East,92,10.0,11.0,74,0.00,,---,0.00,VWS V14.00,2013-08-07 18:40:00,
2013-08-07 14:45:00,84.5,73.2,30.09,ESE,102,5.0,11.0,69,0.00,,---,0.00,VWS V14.00,2013-08-07 18:45:00,
2013-08-07 14:50:00,84.6,73.7,30.09,East,79,5.0,11.0,70,0.00,,---,0.00,VWS V14.00,2013-08-07 18:50:00,
2013-08-07 14:55:00,85.1,73.8,30.09,East,96,9.0,11.0,69,0.00,,---,0.00,VWS V14.00,2013-08-07 18:55:00,
2013-08-07 15:00:00,84.3,72.6,30.09,SE,125,7.0,11.0,68,0.00,,---,0.00,VWS V14.00,2013-08-07 19:00:00,
2013-08-07 15:05:00,83.8,72.1,30.09,ESE,110,6.0,11.0,68,0.00,,---,0.00,VWS V14.00,2013-08-07 19:05:00,
2013-08-07 15:10:00,83.7,73.3,30.09,ESE,105,7.0,12.0,71,0.00,,---,0.00,VWS V14.00,2013-08-07 19:10:00,
2013-08-07 15:15:00,83.6,73.6,30.08,ESE,102,3.0,14.0,72,0.00,,---,0.00,VWS V14.00,2013-08-07 19:15:00,
2013-08-07 15:20:00,84.3,72.6,30.08,SE,133,5.0,14.0,68,0.00,,---,0.00,VWS V14.00,2013-08-07 19:20:00,
2013-08-07 15:25:00,84.5,73.7,30.08,SE,133,7.0,14.0,70,0.00,,---,0.00,VWS V14.00,2013-08-07 19:25:00,
2013-08-07 15:30:00,83.2,72.4,30.08,ESE,109,8.0,16.0,70,0.00,,---,0.00,VWS V14.00,2013-08-07 19:30:00,
2013-08-07 15:35:00,82.3,72.8,30.08,East,97,8.0,16.0,73,0.00,,---,0.00,VWS V14.00,2013-08-07 19:35:00,
2013-08-07 15:40:00,82.7,73.6,30.08,SE,143,8.0,16.0,74,0.00,,---,0.00,VWS V14.00,2013-08-07 19:40:00,
2013-08-07 15:45:00,82.7,73.6,30.07,ESE,120,11.0,16.0,74,0.00,,---,0.00,VWS V14.00,2013-08-07 19:45:00,
2013-08-07 15:50:00,82.9,73.8,30.07,ESE,108,8.0,16.0,74,0.00,,---,0.00,VWS V14.00,2013-08-07 19:50:00,
2013-08-07 15:55:00,83.4,74.2,30.07,ESE,114,9.0,16.0,74,0.00,,---,0.00,VWS V14.00,2013-08-07 19:55:00,
2013-08-07 16:00:00,84.6,74.2,30.07,East,94,5.0,11.0,71,0.00,,---,0.00,VWS V14.00,2013-08-07 20:00:00,
2013-08-07 16:05:00,84.6,74.6,30.07,East,100,6.0,11.0,72,0.00,,---,0.00,VWS V14.00,2013-08-07 20:05:00,
2013-08-07 16:10:00,83.9,73.1,30.07,ESE,105,7.0,14.0,70,0.00,,---,0.00,VWS V14.00,2013-08-07 20:10:00,
2013-08-07 16:15:00,83.8,73.4,30.07,ESE,120,11.0,14.0,71,0.00,,---,0.00,VWS V14.00,2013-08-07 20:15:00,
2013-08-07 16:20:00,83.3,74.2,30.06,ESE,123,4.0,14.0,74,0.00,,---,0.00,VWS V14.00,2013-08-07 20:20:00,
2013-08-07 16:25:00,82.5,72.6,30.06,ESE,123,10.0,14.0,72,0.00,,---,0.00,VWS V14.00,2013-08-07 20:25:00,
2013-08-07 16:30:00,82.2,72.7,30.06,ESE,103,8.0,12.0,73,0.00,,---,0.00,VWS V14.00,2013-08-07 20:30:00,
2013-08-07 16:35:00,82.7,73.2,30.06,ESE,117,8.0,12.0,73,0.00,,---,0.00,VWS V14.00,2013-08-07 20:35:00,
2013-08-07 16:40:00,82.9,73.4,30.06,East,85,9.0,12.0,73,0.00,,---,0.00,VWS V14.00,2013-08-07 20:40:00,
2013-08-07 16:45:00,82.7,74.0,30.06,SE,141,4.0,12.0,75,0.00,,---,0.00,VWS V14.00,2013-08-07 20:45:00,
2013-08-07 16:50:00,82.1,73.8,30.06,SE,129,7.0,13.0,76,0.00,,---,0.00,VWS V14.00,2013-08-07 20:50:00,
2013-08-07 16:55:00,82.2,74.3,30.06,ESE,111,6.0,13.0,77,0.00,,---,0.00,VWS V14.00,2013-08-07 20:55:00,
2013-08-07 17:00:00,82.0,72.9,30.06,SE,136,6.0,10.0,74,0.00,,---,0.00,VWS V14.00,2013-08-07 21:00:00,
2013-08-07 17:05:00,82.1,73.4,30.06,ESE,108,6.0,10.0,75,0.00,,---,0.00,VWS V14.00,2013-08-07 21:05:00,
2013-08-07 17:10:00,82.1,73.0,30.06,East,98,6.0,10.0,74,0.00,,---,0.00,VWS V14.00,2013-08-07 21:10:00,
2013-08-07 17:15:00,82.1,73.8,30.06,SE,141,5.0,10.0,76,0.00,,---,0.00,VWS V14.00,2013-08-07 21:15:00,
2013-08-07 17:20:00,82.0,73.7,30.06,SE,142,10.0,10.0,76,0.00,,---,0.00,VWS V14.00,2013-08-07 21:20:00,
2013-08-07 17:25:00,81.7,72.6,30.06,SE,137,3.0,12.0,74,0.00,,---,0.00,VWS V14.00,2013-08-07 21:25:00,
2013-08-07 17:30:00,81.6,73.3,30.06,SE,138,2.0,9.0,76,0.00,,---,0.00,VWS V14.00,2013-08-07 21:30:00,
2013-08-07 17:35:00,81.2,72.9,30.06,ESE,106,3.0,11.0,76,0.00,,---,0.00,VWS V14.00,2013-08-07 21:35:00,
2013-08-07 17:40:00,81.1,73.2,30.06,ESE,113,5.0,11.0,77,0.00,,---,0.00,VWS V14.00,2013-08-07 21:40:00,
2013-08-07 17:45:00,81.1,72.8,30.06,ESE,120,5.0,11.0,76,0.00,,---,0.00,VWS V14.00,2013-08-07 21:45:00,
2013-08-07 17:50:00,81.0,73.1,30.05,ESE,107,7.0,11.0,77,0.00,,---,0.00,VWS V14.00,2013-08-07 21:50:00,
2013-08-07 17:55:00,81.0,72.7,30.05,ESE,114,7.0,11.0,76,0.00,,---,0.00,VWS V14.00,2013-08-07 21:55:00,
2013-08-07 18:00:00,81.3,73.8,30.05,ESE,117,4.0,7.0,78,0.00,,---,0.00,VWS V14.00,2013-08-07 22:00:00,
2013-08-07 18:05:00,82.2,73.9,30.05,East,91,8.0,9.0,76,0.00,,---,0.00,VWS V14.00,2013-08-07 22:05:00,
2013-08-07 18:10:00,82.7,74.0,30.05,ESE,104,7.0,10.0,75,0.00,,---,0.00,VWS V14.00,2013-08-07 22:10:00,
2013-08-07 18:15:00,82.7,73.6,30.05,ESE,116,8.0,10.0,74,0.00,,---,0.00,VWS V14.00,2013-08-07 22:15:00,
2013-08-07 18:20:00,82.8,73.7,30.05,ESE,123,4.0,10.0,74,0.00,,---,0.00,VWS V14.00,2013-08-07 22:20:00,
2013-08-07 18:25:00,82.6,73.1,30.04,ESE,103,5.0,11.0,73,0.00,,---,0.00,VWS V14.00,2013-08-07 22:25:00,
2013-08-07 18:30:00,82.3,72.8,30.04,SSE,155,8.0,11.0,73,0.00,,---,0.00,VWS V14.00,2013-08-07 22:30:00,
2013-08-07 18:35:00,81.7,73.0,30.04,ESE,115,6.0,11.0,75,0.00,,---,0.00,VWS V14.00,2013-08-07 22:35:00,
2013-08-07 18:40:00,81.3,73.0,30.04,ESE,104,6.0,11.0,76,0.00,,---,0.00,VWS V14.00,2013-08-07 22:40:00,
2013-08-07 18:45:00,81.1,73.2,30.04,ESE,110,4.0,11.0,77,0.00,,---,0.00,VWS V14.00,2013-08-07 22:45:00,
2013-08-07 18:50:00,80.9,73.0,30.04,ESE,106,8.0,11.0,77,0.00,,---,0.00,VWS V14.00,2013-08-07 22:50:00,
2013-08-07 18:55:00,80.6,72.7,30.04,ESE,106,5.0,11.0,77,0.00,,---,0.00,VWS V14.00,2013-08-07 22:55:00,
2013-08-07 19:00:00,80.5,73.0,30.04,ESE,107,4.0,7.0,78,0.00,,---,0.00,VWS V14.00,2013-08-07 23:00:00,
2013-08-07 19:05:00,80.3,73.2,30.04,SE,135,5.0,9.0,79,0.00,,---,0.00,VWS V14.00,2013-08-07 23:05:00,
2013-08-07 19:10:00,80.2,73.1,30.04,ESE,114,4.0,9.0,79,0.00,,---,0.00,VWS V14.00,2013-08-07 23:10:00,
2013-08-07 19:15:00,80.1,73.4,30.04,ESE,108,5.0,9.0,80,0.00,,---,0.00,VWS V14.00,2013-08-07 23:15:00,
2013-08-07 19:20:00,80.0,73.7,30.04,ESE,111,4.0,9.0,81,0.00,,---,0.00,VWS V14.00,2013-08-07 23:20:00,
2013-08-07 19:25:00,80.0,73.7,30.04,ESE,108,2.0,9.0,81,0.00,,---,0.00,VWS V14.00,2013-08-07 23:25:00,
2013-08-07 19:30:00,80.0,73.7,30.04,ESE,104,3.0,4.0,81,0.00,,---,0.00,VWS V14.00,2013-08-07 23:30:00,
2013-08-07 19:35:00,79.8,73.4,30.05,East,97,3.0,5.0,81,0.00,,---,0.00,VWS V14.00,2013-08-07 23:35:00,
2013-08-07 19:40:00,79.7,73.7,30.05,ESE,110,1.0,5.0,82,0.00,,---,0.00,VWS V14.00,2013-08-07 23:40:00,
2013-08-07 19:45:00,79.6,73.6,30.05,ESE,102,3.0,5.0,82,0.00,,---,0.00,VWS V14.00,2013-08-07 23:45:00,
2013-08-07 19:50:00,79.4,73.8,30.05,East,99,3.0,5.0,83,0.00,,---,0.00,VWS V14.00,2013-08-07 23:50:00,
2013-08-07 19:55:00,79.1,73.8,30.05,East,96,3.0,5.0,84,0.00,,---,0.00,VWS V14.00,2013-08-07 23:55:00,
2013-08-07 20:00:00,78.9,73.7,30.05,East,96,2.0,4.0,84,0.00,,---,0.00,VWS V14.00,2013-08-08 00:00:00,
2013-08-07 20:05:00,78.7,73.8,30.05,East,93,1.0,4.0,85,0.00,,---,0.00,VWS V14.00,2013-08-08 00:05:00,
2013-08-07 20:10:00,78.5,73.6,30.05,East,85,2.0,4.0,85,0.00,,---,0.00,VWS V14.00,2013-08-08 00:10:00,
2013-08-07 20:15:00,78.4,73.5,30.05,East,85,2.0,4.0,85,0.00,,---,0.00,VWS V14.00,2013-08-08 00:15:00,
2013-08-07 20:20:00,78.2,73.3,30.05,East,84,2.0,4.0,85,0.00,,---,0.00,VWS V14.00,2013-08-08 00:20:00,
2013-08-07 20:25:00,78.2,73.3,30.05,East,80,1.0,4.0,85,0.00,,---,0.00,VWS V14.00,2013-08-08 00:25:00,
2013-08-07 20:30:00,78.2,73.3,30.05,NE,54,3.0,3.0,85,0.00,,---,0.00,VWS V14.00,2013-08-08 00:30:00,
2013-08-07 20:35:00,78.3,73.4,30.05,NE,56,0.0,5.0,85,0.00,,---,0.00,VWS V14.00,2013-08-08 00:35:00,
2013-08-07 20:40:00,78.4,73.5,30.05,NE,56,1.0,5.0,85,0.00,,---,0.00,VWS V14.00,2013-08-08 00:40:00,
2013-08-07 20:45:00,78.3,73.4,30.05,NE,56,1.0,5.0,85,0.00,,---,0.00,VWS V14.00,2013-08-08 00:45:00,
2013-08-07 20:50:00,78.2,73.3,30.05,NE,56,0.0,5.0,85,0.00,,---,0.00,VWS V14.00,2013-08-08 00:50:00,
2013-08-07 20:55:00,78.1,73.6,30.06,NE,56,0.0,5.0,86,0.00,,---,0.00,VWS V14.00,2013-08-08 00:55:00,
2013-08-07 21:00:00,78.0,73.5,30.06,NE,56,0.0,0.0,86,0.00,,---,0.00,VWS V14.00,2013-08-08 01:00:00,
2013-08-07 21:05:00,77.8,73.3,30.05,NE,56,0.0,0.0,86,0.00,,---,0.00,VWS V14.00,2013-08-08 01:05:00,
2013-08-07 21:10:00,77.4,72.9,30.06,NE,55,0.0,0.0,86,0.00,,---,0.00,VWS V14.00,2013-08-08 01:10:00,
2013-08-07 21:15:00,77.2,73.0,30.06,NE,56,0.0,0.0,87,0.00,,---,0.00,VWS V14.00,2013-08-08 01:15:00,
2013-08-07 21:20:00,77.0,72.8,30.06,NE,56,0.0,0.0,87,0.00,,---,0.00,VWS V14.00,2013-08-08 01:20:00,
2013-08-07 21:25:00,76.7,72.9,30.06,NE,55,0.0,0.0,88,0.00,,---,0.00,VWS V14.00,2013-08-08 01:25:00,
2013-08-07 21:30:00,76.5,72.7,30.06,NE,56,0.0,0.0,88,0.00,,---,0.00,VWS V14.00,2013-08-08 01:30:00,
2013-08-07 21:35:00,75.9,72.4,30.07,NE,56,0.0,0.0,89,0.00,,---,0.00,VWS V14.00,2013-08-08 01:35:00,
2013-08-07 21:40:00,75.3,72.2,30.06,NE,56,0.0,0.0,90,0.00,,---,0.00,VWS V14.00,2013-08-08 01:40:00,
2013-08-07 21:45:00,75.1,72.3,30.06,NE,56,0.0,0.0,91,0.00,,---,0.00,VWS V14.00,2013-08-08 01:45:00,
2013-08-07 21:50:00,74.9,72.1,30.06,NE,56,0.0,0.0,91,0.00,,---,0.00,VWS V14.00,2013-08-08 01:50:00,
2013-08-07 21:55:00,75.0,72.5,30.07,NE,56,0.0,0.0,92,0.00,,---,0.00,VWS V14.00,2013-08-08 01:55:00,
2013-08-07 22:00:00,75.1,72.6,30.07,NE,56,0.0,0.0,92,0.00,,---,0.00,VWS V14.00,2013-08-08 02:00:00,
2013-08-07 22:05:00,75.3,72.5,30.07,NE,56,0.0,0.0,91,0.00,,---,0.00,VWS V14.00,2013-08-08 02:05:00,
2013-08-07 22:10:00,75.4,72.6,30.07,NE,56,0.0,0.0,91,0.00,,---,0.00,VWS V14.00,2013-08-08 02:10:00,
2013-08-07 22:15:00,75.2,72.4,30.07,NE,56,0.0,0.0,91,0.00,,---,0.00,VWS V14.00,2013-08-08 02:15:00,
2013-08-07 22:20:00,75.1,72.3,30.07,NE,56,0.0,0.0,91,0.00,,---,0.00,VWS V14.00,2013-08-08 02:20:00,
2013-08-07 22:25:00,75.1,72.3,30.07,NE,56,0.0,0.0,91,0.00,,---,0.00,VWS V14.00,2013-08-08 02:25:00,
2013-08-07 22:30:00,75.0,72.2,30.07,NE,56,0.0,0.0,91,0.00,,---,0.00,VWS V14.00,2013-08-08 02:30:00,
2013-08-07 22:35:00,75.0,72.2,30.06,NE,56,0.0,0.0,91,0.00,,---,0.00,VWS V14.00,2013-08-08 02:35:00,
2013-08-07 22:40:00,74.9,72.1,30.06,NE,56,0.0,0.0,91,0.00,,---,0.00,VWS V14.00,2013-08-08 02:40:00,
2013-08-07 22:45:00,74.6,71.5,30.07,NE,56,0.0,0.0,90,0.00,,---,0.00,VWS V14.00,2013-08-08 02:45:00,
2013-08-07 22:50:00,74.3,71.5,30.06,NE,56,0.0,0.0,91,0.00,,---,0.00,VWS V14.00,2013-08-08 02:50:00,
2013-08-07 22:55:00,74.5,72.0,30.07,NE,55,0.0,0.0,92,0.00,,---,0.00,VWS V14.00,2013-08-08 02:55:00,
2013-08-07 23:00:00,74.7,72.2,30.07,NE,55,0.0,0.0,92,0.00,,---,0.00,VWS V14.00,2013-08-08 03:00:00,
2013-08-07 23:05:00,74.9,72.4,30.07,NE,56,0.0,0.0,92,0.00,,---,0.00,VWS V14.00,2013-08-08 03:05:00,
2013-08-07 23:10:00,75.1,72.3,30.07,NE,56,0.0,0.0,91,0.00,,---,0.00,VWS V14.00,2013-08-08 03:10:00,
2013-08-07 23:15:00,75.2,72.4,30.07,NE,56,0.0,0.0,91,0.00,,---,0.00,VWS V14.00,2013-08-08 03:15:00,
2013-08-07 23:20:00,75.1,72.3,30.07,NE,56,0.0,0.0,91,0.00,,---,0.00,VWS V14.00,2013-08-08 03:20:00,
2013-08-07 23:25:00,75.1,72.3,30.07,NE,55,0.0,0.0,91,0.00,,---,0.00,VWS V14.00,2013-08-08 03:25:00,
2013-08-07 23:30:00,75.2,72.4,30.07,NE,55,0.0,0.0,91,0.00,,---,0.00,VWS V14.00,2013-08-08 03:30:00,
2013-08-07 23:35:00,74.9,71.8,30.07,NE,56,0.0,0.0,90,0.00,,---,0.00,VWS V14.00,2013-08-08 03:35:00,
2013-08-07 23:40:00,74.6,71.5,30.07,NE,56,0.0,0.0,90,0.00,,---,0.00,VWS V14.00,2013-08-08 03:40:00,
2013-08-07 23:45:00,74.3,71.5,30.07,NE,56,0.0,0.0,91,0.00,,---,0.00,VWS V14.00,2013-08-08 03:45:00,
2013-08-07 23:50:00,73.8,71.0,30.07,NE,56,0.0,0.0,91,0.00,,---,0.00,VWS V14.00,2013-08-08 03:50:00,
2013-08-07 23:55:00,73.7,71.2,30.07,NE,56,0.0,0.0,92,0.00,,---,0.00,VWS V14.00,2013-08-08 03:55:00,